Wind_Speed
2 3 3 4 5 6 7 9 9 8 8 5 3 3 5 3 5 5 0 4 3 1 5 7 7 9 9 8 7 10 10 9 9 9 8 9 9 9 8 8 8 7 7 12 14 10 10 10 9 9 8 10 10 8 9 10 11 12 15 17 17 14 14 16 17 17 18 18 19 20 20 20 19 18 18 18 18 18 18 17 16 16 16 16 17 17
1 4 6 7 8 7 8 8 9 9 8 6 3 4 5 3 5 5 1 4 3 1 4 6 7 10 9 9 7 8 10 10 11 11 11 10 10 9 9 10 8 7 7 11 12 11 12 11 11 11 10 10 10 9 9 11 12 13 14 16 15 13 12 12 13 14 15 16 18 19 19 20 20 19 19 19 19 19 19 18 18 18 17 17 18 18
2 5 8 9 7 8 8 5 3 5 5 5 3 3 4 3 5 4 2 3 2 1 4 6 7 9 9 9 9 7 10 11 13 14 12 12 11 9 9 10 9 8 8 8 10 13 14 13 12 12 11 11 10 10 10 11 12 14 15 14 14 14 13 13 13 14 15 16 17 18 19 19 20 21 20 20 20 20 21 21 20 20 19 19 20 20
4 5 9 11 8 7 6 1 1 3 2 3 3 3 4 3 3 3 1 1 2 2 4 6 7 8 9 9 11 13 12 8 7 7 5 5 10 11 9 9 10 10 10 9 9 12 15 15 14 13 13 12 12 10 11 11 11 13 14 13 14 15 15 14 14 15 16 17 18 19 20 21 22 23 22 22 22 22 23 23 23 22 22 22 22 22
7 4 5 9 8 6 4 3 3 2 3 4 6 5 5 4 5 5 3 3 3 3 4 5 7 7 8 11 12 10 6 3 4 5 2 1 4 9 8 9 10 10 10 10 9 11 15 16 16 15 14 13 13 12 13 12 12 13 14 13 14 15 15 15 16 16 18 19 21 23 24 24 23 23 23 24 24 24 25 25 25 25 24 24 25 24
9 4 2 6 6 5 5 5 5 5 4 4 5 7 8 8 7 6 3 1 2 3 3 2 4 5 4 8 9 2 2 5 5 7 7 4 5 7 8 8 9 9 9 10 10 11 14 17 17 16 16 15 14 14 15 14 13 14 15 14 14 15 15 16 17 18 20 22 25 26 24 23 23 23 22 24 25 25 26 26 26 26 25 25 25 25
3 2 3 4 5 5 5 5 5 7 3 3 3 3 4 7 5 5 5 3 2 3 1 4 2 6 5 7 8 2 4 8 6 7 10 8 7 7 7 7 7 8 9 9 10 12 14 17 18 17 17 17 16 16 17 15 14 15 15 15 16 18 18 19 19 21 22 23 22 21 20 22 25 26 23 23 25 26 27 27 27 26 26 25 25 25
3 5 2 3 5 5 6 4 5 7 4 3 3 4 3 1 2 2 3 3 3 3 1 3 3 6 8 9 9 7 7 8 8 10 10 9 10 10 9 8 8 8 9 9 9 11 13 17 19 19 18 18 17 18 18 16 16 17 17 18 19 21 22 22 22 21 20 19 18 19 22 24 26 27 26 25 26 27 27 27 27 26 26 25 25 24
2 6 5 6 6 5 5 3 4 7 5 2 0 3 5 3 3 3 2 3 3 3 2 4 3 4 8 6 6 8 10 10 11 13 12 12 12 11 10 9 9 9 8 9 10 10 14 17 19 20 20 18 18 19 19 18 17 18 19 19 21 23 24 24 23 19 18 18 19 22 26 27 27 28 28 27 28 28 28 28 27 26 25 25 24 23
1 3 3 5 5 5 3 2 2 3 4 4 3 5 5 2 2 1 2 2 2 4 6 6 5 4 9 5 4 7 8 10 12 11 12 12 11 10 10 10 10 9 8 8 9 12 15 18 20 21 20 19 19 19 20 19 19 19 20 20 22 23 24 24 22 20 18 19 22 26 30 31 30 29 29 28 28 28 28 28 27 25 25 24 24 23
3 2 1 1 2 2 4 4 5 3 4 5 4 4 3 1 1 0 2 1 1 6 7 9 10 7 6 3 5 6 6 8 9 5 5 8 10 9 9 9 10 9 8 8 8 12 16 18 20 21 20 19 19 19 20 20 20 20 21 22 23 23 23 23 21 20 20 21 25 29 31 32 32 31 30 29 28 27 27 27 26 25 24 23 23 22
3 2 0 0 1 3 5 3 4 4 3 4 4 3 1 1 2 2 1 2 2 6 5 9 13 11 8 4 1 1 1 2 5 5 7 9 10 9 8 9 9 9 9 9 8 10 14 16 18 20 20 20 20 20 20 21 21 21 22 23 23 23 22 21 20 21 22 24 28 30 30 31 32 31 31 30 28 27 27 27 26 25 24 23 22 21
3 5 5 1 2 3 5 3 2 4 1 3 4 5 3 0 1 1 2 3 4 6 3 5 9 9 9 8 6 6 1 2 2 4 9 10 10 9 9 9 8 8 9 9 9 9 11 13 17 19 20 21 22 22 22 22 22 22 23 24 24 23 22 21 22 23 25 27 29 29 29 30 30 29 30 29 29 27 27 27 26 25 24 23 21 20
2 4 6 4 2 5 9 7 3 1 3 6 5 5 5 3 2 3 4 3 4 5 4 2 3 3 5 5 10 12 5 3 5 3 6 10 10 9 9 9 8 8 8 8 9 8 9 13 17 19 21 22 23 23 23 24 24 24 23 24 24 23 22 23 24 26 27 28 28 28 28 29 29 28 28 28 28 27 26 25 25 24 23 22 21 19
4 4 6 9 2 8 13 11 7 6 6 8 6 5 5 4 3 4 3 3 3 2 3 3 1 3 2 1 4 3 3 6 5 5 5 8 8 8 8 8 8 8 8 7 8 9 10 15 19 20 21 22 23 23 24 24 24 24 23 24 25 24 24 24 26 27 28 29 28 28 28 28 28 28 28 27 27 26 25 24 24 24 22 21 20 19
7 5 6 8 4 10 13 10 6 7 4 5 4 5 5 4 4 3 1 3 1 2 2 2 3 4 3 2 3 4 5 6 4 3 5 8 8 8 8 8 8 8 8 8 9 9 11 17 20 20 21 22 23 23 24 25 24 25 24 24 25 25 26 26 28 28 29 29 28 28 28 28 28 29 28 27 26 25 25 24 24 23 22 20 19 18
5 3 3 4 2 8 7 5 7 6 3 3 3 5 4 2 3 3 2 1 3 3 4 4 5 4 3 4 5 7 3 5 4 2 5 7 9 9 8 8 8 8 9 9 9 9 12 17 19 20 22 23 24 24 24 25 25 25 26 25 26 27 27 28 28 29 29 29 29 28 28 29 28 28 27 27 26 25 25 24 23 23 21 20 18 17
4 1 1 1 2 2 2 1 3 1 3 5 4 4 3 4 2 1 1 2 1 6 4 5 8 5 3 5 4 8 6 5 6 6 7 7 9 10 8 8 9 8 8 8 9 9 12 17 20 21 22 23 24 24 24 25 25 25 26 26 28 29 29 29 29 29 29 30 29 29 29 29 28 27 26 26 26 26 25 24 23 22 21 19 18 17
3 2 3 1 1 1 2 1 1 3 2 4 2 2 3 2 0 2 2 2 3 5 5 5 9 7 7 6 4 8 9 9 9 9 9 10 11 10 8 9 9 8 8 8 9 9 11 17 20 21 23 23 23 24 24 24 24 24 25 26 28 29 29 29 29 29 29 29 29 29 28 28 27 27 26 26 26 26 25 24 23 21 20 19 18 16
2 3 2 3 2 2 1 1 4 3 0 3 3 2 2 2 3 4 2 2 3 4 6 5 6 6 7 8 9 11 13 13 12 11 11 12 12 10 9 10 10 10 10 10 10 9 11 17 21 22 23 24 24 24 24 25 24 25 25 26 27 28 28 28 28 29 29 28 29 28 28 28 27 27 27 27 26 25 24 24 22 21 20 19 18 16
1 3 3 3 3 2 2 4 9 9 7 3 1 2 2 2 2 0 2 2 3 3 4 6 8 5 3 5 10 14 14 13 14 14 13 11 12 12 11 11 11 10 10 10 10 10 12 17 20 22 23 23 24 24 25 25 25 25 26 27 28 28 28 28 28 29 29 29 28 29 28 28 28 28 27 27 26 25 24 23 22 21 20 19 18 16
3 3 4 2 2 4 4 6 7 6 7 7 6 7 7 5 3 1 5 4 4 4 4 4 9 8 2 1 6 12 12 11 14 14 12 12 13 12 11 11 12 11 11 11 11 11 13 18 21 22 24 24 25 25 26 26 26 26 27 27 28 29 29 29 29 29 29 29 29 29 29 29 29 28 27 27 26 25 24 23 22 21 20 19 18 16
3 2 3 3 4 4 3 3 4 2 2 2 4 6 7 7 7 6 7 4 3 6 5 2 8 8 1 3 2 4 4 7 12 12 10 11 12 11 10 11 11 11 11 11 11 11 14 18 21 22 24 25 26 27 27 27 27 27 27 27 28 29 30 29 29 29 29 29 29 29 29 29 29 28 27 27 26 25 24 24 22 21 20 19 18 17
4 2 3 2 0 1 2 2 2 2 2 0 4 6 7 9 8 7 6 2 2 7 6 2 8 7 2 4 4 4 4 1 8 12 11 10 9 11 12 11 11 10 10 10 10 10 14 17 19 21 23 24 26 27 27 28 27 28 28 28 29 29 29 29 29 29 29 29 29 29 29 29 29 28 28 27 26 26 25 24 22 21 20 19 18 18
3 3 3 2 1 1 0 1 2 1 2 4 5 6 8 9 7 4 2 1 4 10 7 5 10 7 1 4 4 6 6 5 3 5 10 10 9 10 10 10 10 10 10 11 11 10 12 15 17 20 22 24 25 26 27 27 28 28 29 29 29 29 29 29 29 29 29 30 29 29 29 30 29 29 29 28 27 26 25 24 24 22 21 20 19 18
5 4 5 6 7 8 7 5 3 4 4 3 5 7 10 11 11 7 3 4 10 10 7 9 13 7 1 3 3 3 2 3 3 2 6 9 9 9 9 9 9 10 11 13 13 11 12 13 15 19 22 23 25 26 27 27 28 28 29 29 29 30 30 30 30 30 30 30 30 30 30 30 30 30 29 28 27 27 26 26 25 23 22 21 20 20
3 3 9 12 12 12 12 7 5 8 7 6 9 11 13 14 14 9 5 10 11 3 5 14 14 10 8 3 3 5 4 4 3 3 5 7 8 8 9 9 9 9 10 11 11 11 11 12 14 19 22 24 25 26 27 28 28 29 29 29 29 30 30 31 31 30 30 31 31 31 31 31 31 31 30 28 28 27 27 27 25 24 23 22 21 21
3 4 12 17 17 18 18 12 6 10 9 11 13 14 16 16 15 14 14 16 9 2 11 15 9 14 17 8 8 10 7 6 7 8 8 7 7 7 8 9 9 9 9 10 11 11 13 13 13 17 22 24 25 26 27 28 29 29 30 30 30 31 31 32 31 31 31 31 31 31 32 32 31 31 30 29 28 29 28 27 26 25 24 23 22 21
4 6 11 15 18 19 20 17 10 9 9 10 12 15 17 17 19 21 22 20 11 9 19 15 9 16 20 10 10 12 10 10 11 10 8 8 8 8 9 10 11 11 10 11 12 12 14 13 12 16 22 24 25 26 27 28 29 29 30 31 31 32 32 32 32 32 32 32 32 32 32 32 31 31 30 29 29 29 29 28 27 26 25 24 23 22
3 7 8 9 12 17 19 16 12 10 10 10 10 13 15 19 24 25 22 20 17 18 24 19 13 19 17 7 9 12 11 10 7 7 8 10 10 11 12 11 11 11 10 11 12 12 13 12 12 16 20 22 25 28 28 29 31 31 31 32 32 33 33 33 33 33 33 33 33 32 32 32 31 31 31 30 29 29 29 29 28 28 27 26 24 23
3 5 4 5 5 13 18 15 11 11 12 14 14 14 17 21 21 19 17 16 16 20 25 21 17 19 14 7 7 9 9 7 7 8 10 10 10 11 11 10 10 10 9 10 10 10 10 10 11 15 20 24 27 29 29 30 30 31 32 32 33 34 34 34 34 33 34 33 33 32 32 32 32 32 32 31 30 29 30 30 30 29 28 27 25 23
3 2 1 4 3 11 16 13 12 12 12 13 18 22 25 23 15 12 13 15 16 18 21 16 15 18 13 7 5 6 9 9 8 9 9 8 9 11 11 10 9 9 9 10 10 10 10 10 12 16 21 25 28 29 30 30 30 31 33 33 34 34 34 34 34 34 34 33 33 33 32 32 32 33 33 33 31 31 31 31 31 30 29 28 26 25
5 4 2 3 5 12 16 10 8 8 8 11 18 26 27 21 14 12 15 17 18 18 15 13 15 14 6 6 6 6 9 10 10 9 8 8 9 9 10 10 10 10 10 10 10 10 11 12 14 19 23 25 28 31 32 32 32 33 34 33 33 33 33 33 34 33 33 33 33 33 33 33 33 34 34 34 33 32 31 31 32 32 31 29 28 26
6 7 6 5 4 10 12 3 5 6 11 11 11 13 16 18 18 19 20 20 19 16 14 13 11 5 5 9 10 10 11 11 10 9 8 9 10 9 9 9 10 10 10 9 10 10 9 12 15 19 22 24 27 29 30 31 32 32 32 31 32 33 34 34 33 33 34 34 34 34 33 34 35 35 34 33 33 32 32 33 33 32 31 30 29 27
8 8 7 5 3 4 2 5 4 10 12 7 3 1 6 11 15 18 20 21 18 16 16 18 14 7 8 10 9 10 11 9 7 6 6 8 10 10 10 9 9 10 9 9 9 9 10 13 16 17 20 22 24 26 28 30 31 30 30 31 32 33 34 34 34 34 35 35 34 34 35 35 35 35 34 33 33 33 33 33 33 33 32 31 30 29
10 8 6 4 4 2 2 6 10 7 4 5 4 1 1 2 6 9 13 19 20 17 16 19 19 11 8 6 4 5 6 4 3 1 3 6 7 8 9 10 10 10 10 10 11 12 14 17 19 19 21 22 23 26 28 29 30 29 29 30 32 33 33 33 34 34 35 34 33 34 35 35 35 34 34 34 34 34 34 34 34 34 33 31 30 30
10 9 6 5 6 5 5 9 8 6 9 11 8 4 5 4 8 10 9 14 16 15 15 17 16 10 7 5 4 5 6 5 1 3 3 4 5 6 7 7 8 9 9 11 13 15 17 19 19 20 21 21 22 25 26 27 28 28 28 29 30 31 31 32 34 34 33 33 33 34 35 35 35 35 35 35 35 35 36 36 35 34 33 32 32 31
9 9 9 7 6 6 8 9 5 5 11 11 6 4 5 4 6 9 8 10 8 9 13 15 12 10 10 6 5 7 6 3 3 6 5 4 4 5 5 5 7 10 12 14 15 15 16 17 18 18 19 20 21 23 24 25 26 26 26 27 29 30 30 32 33 33 32 33 34 34 35 35 36 35 35 35 36 37 37 36 35 34 34 34 33 33
4 5 6 7 6 5 7 8 7 8 8 4 2 3 2 2 4 8 4 9 5 2 9 13 11 11 11 9 8 8 6 5 7 6 5 6 6 5 6 6 7 11 14 16 17 17 17 17 17 17 18 19 20 21 22 24 25 25 25 26 28 29 30 32 33 33 34 35 35 35 35 35 36 36 36 37 37 37 37 36 35 35 34 34 33 33
2 2 3 6 7 7 8 8 6 6 4 2 4 4 4 3 5 9 3 7 3 4 2 8 10 10 10 9 8 7 6 7 7 4 4 7 7 5 7 7 8 11 14 15 16 18 19 19 19 19 19 20 21 21 22 23 24 25 26 25 26 28 30 32 33 33 34 34 33 33 34 34 35 36 37 37 37 37 36 35 34 34 34 33 33 32
3 3 4 7 9 10 10 9 5 4 3 3 5 6 3 0 4 6 6 3 2 5 4 5 9 9 10 9 8 6 4 3 3 3 5 8 8 6 7 9 11 13 15 16 16 18 19 19 19 19 19 20 21 21 22 23 24 25 24 24 26 28 30 31 31 31 31 30 30 31 32 33 34 35 36 36 36 35 34 34 34 34 33 33 33 32
5 4 3 6 8 7 8 8 5 4 2 3 3 3 2 2 3 5 4 1 1 0 3 5 8 8 9 9 7 5 4 3 5 6 6 8 8 7 8 11 12 12 13 15 16 17 18 17 16 16 17 18 19 20 21 23 24 24 24 24 25 26 26 26 26 27 27 27 27 29 30 31 32 33 34 34 33 33 33 33 32 33 32 32 32 31
6 5 3 6 6 3 4 6 5 3 2 5 4 1 1 2 3 4 2 1 1 2 4 5 5 6 7 8 5 5 6 6 5 6 6 6 7 7 8 10 11 12 13 15 15 16 18 18 16 17 17 17 18 18 20 22 22 22 23 23 22 21 21 21 22 23 23 24 26 27 28 29 30 31 31 32 32 32 32 32 31 31 31 31 31 31
3 4 3 5 5 3 5 5 3 1 1 2 3 2 2 2 3 3 3 2 2 0 2 2 3 4 6 6 5 6 7 6 6 6 6 6 6 7 7 8 10 12 14 16 16 17 18 18 18 17 16 16 17 17 18 19 19 20 21 20 19 18 18 19 19 20 21 22 24 25 25 26 27 28 29 30 31 31 31 31 31 31 31 31 31 31
2 2 2 2 1 1 2 2 1 1 2 3 2 0 0 1 1 1 4 4 1 2 3 3 3 3 4 6 6 6 5 6 6 6 7 7 7 7 7 9 11 13 14 15 17 18 18 18 18 17 15 15 15 15 15 16 17 19 20 19 18 18 18 19 19 20 21 22 23 23 23 24 25 26 28 29 30 31 32 32 31 31 32 32 32 32
1 2 1 1 1 1 2 2 1 1 3 3 3 3 2 2 2 3 3 4 3 3 4 3 3 4 6 6 6 5 4 6 7 6 6 7 7 7 8 9 11 14 15 15 17 18 17 16 16 15 14 13 13 14 15 16 17 19 20 19 19 19 20 20 21 21 22 22 23 23 24 25 26 27 28 29 29 30 31 32 33 33 33 33 33 34
1 2 2 2 2 2 2 1 1 1 1 1 2 3 2 2 3 2 1 3 2 4 3 2 4 6 6 6 7 6 6 7 7 6 6 6 7 7 7 8 10 14 15 16 17 18 17 15 14 15 14 14 14 14 15 16 18 19 20 19 18 19 19 20 21 22 23 24 25 25 26 27 28 28 28 29 29 30 30 31 32 33 34 34 35 35
2 3 3 2 2 2 2 1 1 2 1 2 1 2 3 3 4 3 1 2 3 4 3 4 5 6 5 5 6 7 7 7 7 7 6 5 6 6 6 8 11 13 13 14 16 18 18 17 16 16 15 15 15 15 16 16 16 18 20 20 18 17 17 18 20 22 23 24 25 26 27 28 28 29 29 29 30 31 32 33 34 35 37 38 38 38
3 3 2 2 3 2 1 1 2 3 2 4 4 5 5 5 5 4 1 3 4 4 5 5 4 4 4 5 6 7 7 6 7 7 7 6 5 5 6 9 12 12 12 13 15 17 18 18 17 17 17 17 16 16 16 15 14 15 16 17 18 18 17 17 18 20 21 22 22 24 25 26 26 27 28 28 29 30 31 32 33 35 37 37 36 36
4 3 2 3 3 2 2 5 6 4 2 5 8 8 8 7 6 4 2 2 2 4 5 4 4 4 3 2 5 7 7 6 6 7 7 6 5 7 9 10 11 11 11 11 12 13 14 15 15 16 17 15 13 12 11 10 10 11 11 13 14 16 17 18 19 19 20 21 21 21 22 23 23 24 25 26 27 28 29 29 29 31 33 33 32 30
4 5 4 4 3 3 5 9 8 4 3 6 9 10 10 7 6 6 6 5 5 5 6 6 4 3 1 1 1 5 7 6 6 7 6 5 7 9 10 11 11 11 11 11 11 11 12 13 13 13 12 10 8 8 7 7 7 8 9 10 11 12 14 17 19 20 21 21 21 22 22 22 23 23 24 25 26 26 27 27 28 28 28 29 28 26
Wind_Direction
141 167 198 210 213 211 210 215 227 247 268 295 337 301 284 285 275 280 214 172 180 183 227 233 246 254 257 253 213 183 194 207 207 207 198 179 172 175 174 170 164 154 134 131 136 140 136 134 134 133 139 139 131 128 126 119 116 118 119 117 114 113 117 120 119 119 120 120 120 116 113 109 106 108 110 108 108 108 107 106 106 105 104 107 107 105
97 202 221 221 221 231 233 227 224 235 260 274 280 290 281 267 266 276 193 155 134 123 248 260 269 266 261 262 246 186 183 207 208 204 204 189 176 177 173 167 156 135 128 135 142 146 141 138 141 139 137 141 139 137 144 139 132 133 133 128 127 133 134 129 129 128 125 127 129 125 121 117 112 110 111 108 106 108 108 107 106 105 106 108 107 106
224 231 233 230 235 241 248 267 250 232 256 277 277 278 272 269 283 287 116 125 118 158 265 279 276 271 265 262 261 225 200 208 209 206 205 190 180 181 173 165 151 139 144 150 153 153 147 142 146 146 139 145 150 146 148 147 143 144 143 139 140 147 150 148 148 146 140 139 139 134 130 127 119 110 110 109 107 109 109 107 105 104 105 106 105 105
210 235 229 226 239 242 235 241 312 293 282 257 254 258 260 251 263 277 96 137 193 211 270 296 289 274 270 264 254 245 231 213 199 198 202 190 182 178 171 164 155 153 158 158 158 154 150 148 149 153 149 150 154 150 147 147 149 151 149 149 153 156 157 158 159 156 151 144 139 133 128 125 117 111 112 112 108 108 106 104 103 102 102 103 103 103
235 245 217 210 218 217 209 195 200 236 253 234 221 224 248 251 237 236 218 190 200 227 248 287 297 270 252 248 244 244 235 187 154 154 142 90 157 153 152 157 156 160 160 158 161 156 154 155 153 157 157 153 154 155 153 151 154 156 154 156 161 162 159 158 157 155 151 144 135 128 121 117 112 109 110 109 104 104 105 103 103 102 103 104 104 103
245 239 167 185 190 179 199 223 188 182 237 251 224 219 226 237 253 266 281 303 318 293 225 181 287 269 244 246 245 235 176 192 172 175 189 176 139 142 150 157 155 154 154 155 158 156 156 154 151 156 159 156 158 164 161 155 158 159 155 156 158 155 151 148 148 148 147 141 134 127 122 120 116 109 106 106 105 106 106 105 105 105 106 105 104 104
228 160 109 158 171 167 198 234 183 172 213 255 263 277 231 229 255 290 309 314 280 283 227 147 218 273 290 273 259 228 203 212 190 197 205 184 170 171 163 165 159 149 150 151 152 156 157 152 150 157 162 160 163 169 166 158 158 158 154 154 151 145 141 137 138 140 140 137 134 133 132 130 124 115 110 111 111 111 110 109 109 109 108 106 105 104
127 137 112 141 163 173 196 224 189 174 190 234 274 351 28 293 279 292 299 268 249 304 280 175 196 274 282 265 245 217 206 215 211 216 216 196 191 185 171 169 163 156 155 152 155 159 158 156 156 159 161 163 169 171 168 162 159 158 156 156 154 149 144 140 139 142 144 145 147 147 141 132 126 122 120 119 116 114 115 113 112 110 109 107 105 104
106 162 168 165 180 198 198 219 203 187 193 206 184 52 64 56 20 5 314 270 290 326 264 197 169 260 272 257 220 212 212 218 220 219 215 206 196 182 174 171 161 160 159 155 159 159 158 160 159 158 158 164 172 172 169 166 163 161 159 159 158 154 151 149 150 156 160 160 158 153 143 133 128 126 124 123 120 118 118 115 113 112 111 109 107 105
51 179 181 171 192 210 173 35 338 186 183 183 133 83 75 84 68 13 276 272 308 276 240 207 168 224 272 263 192 215 221 219 225 223 213 202 188 174 170 165 159 159 158 157 159 156 159 160 157 156 156 162 170 172 172 170 166 164 162 161 160 159 158 158 161 164 164 163 160 154 145 137 133 130 128 126 123 122 121 118 117 116 114 113 111 109
118 133 270 196 188 167 118 60 13 54 127 152 136 94 79 185 117 90 241 156 289 262 229 202 189 203 274 269 176 208 215 213 224 220 188 174 164 165 165 159 158 159 159 159 156 152 153 150 150 154 155 161 168 171 172 171 167 165 164 163 162 162 163 163 165 164 161 163 160 153 145 140 137 136 134 131 128 128 127 123 122 121 119 117 115 114
143 141 126 132 90 114 105 71 13 21 98 130 122 110 88 322 43 24 263 147 231 258 221 199 195 197 235 256 205 225 99 209 227 172 156 158 158 165 162 156 157 157 159 158 155 153 147 144 148 153 157 163 167 170 172 171 168 166 165 165 163 162 166 166 164 162 160 161 157 150 146 143 142 141 139 137 135 135 133 129 128 126 124 121 119 118
219 206 168 119 289 171 136 108 35 360 353 148 131 124 123 277 339 309 216 180 226 251 258 214 193 202 238 251 263 272 289 36 358 144 159 163 163 166 159 155 156 156 159 159 159 158 151 153 157 158 159 165 169 172 173 171 169 168 167 168 165 162 165 165 162 161 160 158 155 151 148 146 145 144 143 141 139 139 138 135 134 132 130 127 124 122
250 233 176 161 292 197 175 176 185 212 186 176 158 149 160 175 231 244 214 221 243 245 298 314 179 219 279 265 249 251 228 90 32 53 144 154 159 160 153 152 153 155 162 163 161 161 161 164 165 163 163 167 172 175 175 173 171 169 169 170 168 164 165 165 162 161 159 156 154 153 150 149 149 147 145 143 142 143 142 140 139 137 136 133 130 127
207 272 187 175 188 181 192 206 191 145 161 191 176 169 182 169 200 229 194 223 263 277 311 329 149 188 225 251 240 250 86 80 31 23 99 127 136 136 139 148 153 161 168 166 164 167 168 167 166 165 167 171 174 176 177 176 173 172 171 172 171 167 166 166 163 161 159 156 154 154 153 153 153 150 148 146 147 148 148 147 145 142 140 137 134 131
206 259 174 164 155 167 191 216 179 126 145 207 174 182 218 200 203 235 189 181 169 335 282 229 230 222 212 225 156 106 76 89 63 32 105 121 129 135 147 160 164 171 173 169 168 169 167 166 167 167 169 173 176 177 179 177 176 175 174 175 175 171 169 168 166 163 161 158 157 157 157 157 155 154 153 152 154 155 154 153 149 146 144 141 138 135
194 260 128 118 118 163 188 219 189 163 157 174 171 195 207 137 167 217 287 61 100 274 257 180 240 276 290 264 171 139 132 123 129 173 151 143 146 153 166 173 175 177 175 173 171 169 165 164 167 169 171 175 176 178 180 179 179 178 176 177 175 173 171 170 168 166 164 162 161 161 161 161 160 161 160 159 159 159 158 155 152 149 147 145 143 139
167 221 280 123 135 179 311 294 197 226 116 136 183 197 118 51 47 129 288 355 134 259 260 185 228 239 212 256 180 147 170 180 185 191 176 168 166 171 180 179 180 176 171 171 167 166 164 163 166 170 173 177 179 180 180 179 179 179 180 180 176 173 173 172 171 169 167 166 164 164 164 165 166 165 164 162 161 161 160 157 155 152 150 148 147 144
159 199 270 346 62 347 332 85 131 338 59 120 200 222 105 84 224 137 200 258 211 255 278 214 224 226 207 221 180 171 195 200 197 190 185 188 181 181 183 176 177 172 167 172 169 168 166 166 170 171 173 177 179 181 181 179 179 180 181 181 177 176 174 173 173 171 171 170 168 167 167 168 168 167 166 165 164 163 161 159 157 155 153 151 150 148
166 198 249 323 351 92 59 164 171 202 149 57 356 313 90 126 174 164 191 219 179 239 276 250 234 231 217 202 176 187 203 197 189 190 195 194 185 183 182 176 179 176 175 178 174 173 170 170 173 173 173 176 178 181 181 179 180 180 180 180 178 177 175 175 176 175 173 172 171 170 169 169 169 168 168 167 166 165 162 161 160 158 156 154 152 149
110 204 215 301 320 134 155 207 191 189 187 168 192 214 182 132 97 106 245 209 179 225 260 264 263 250 206 186 178 187 202 196 185 190 196 191 184 185 182 179 179 177 180 182 176 174 171 171 172 173 174 176 177 180 181 181 182 180 180 181 180 178 177 177 178 177 175 174 174 172 171 170 170 169 169 168 168 167 164 163 162 161 159 156 153 152
167 194 180 176 230 206 212 208 194 192 189 186 189 190 188 178 150 216 251 213 182 226 227 250 271 261 203 165 179 181 195 193 183 190 191 183 184 186 182 178 178 178 182 183 178 174 171 171 171 170 172 175 178 179 181 183 183 181 181 181 181 181 180 180 179 179 177 176 176 175 172 171 171 171 171 170 170 170 168 166 166 164 162 158 156 153
128 126 190 195 192 201 212 177 161 153 143 181 221 196 185 192 182 194 232 212 171 234 237 256 279 274 323 42 84 154 194 190 181 183 182 183 183 178 175 175 176 180 181 181 179 173 172 172 169 169 171 175 179 181 183 184 184 184 182 182 183 183 182 182 182 181 180 178 177 176 174 173 173 173 174 174 174 173 171 170 169 167 165 163 160 154
69 110 200 228 247 98 79 86 76 67 89 270 247 205 191 207 200 200 224 170 148 232 217 209 262 268 343 12 11 1 342 159 173 176 173 178 177 171 174 174 174 177 175 178 179 169 166 166 166 170 174 177 181 183 184 185 185 185 184 184 185 185 184 183 183 182 182 179 178 177 176 175 176 176 177 178 178 176 175 174 171 169 169 167 163 158
149 171 147 118 275 276 69 336 344 341 184 217 230 205 207 214 196 205 247 78 254 237 196 209 252 246 318 356 6 355 358 42 91 161 164 168 174 173 172 170 171 172 170 175 174 165 164 167 170 176 179 181 183 185 185 186 187 187 187 186 187 186 185 185 184 184 183 181 179 179 178 179 179 180 182 182 181 180 179 177 174 173 173 170 166 163
169 172 152 175 219 227 227 232 213 183 184 223 220 196 209 211 193 196 211 212 241 233 177 217 248 244 314 340 344 335 4 73 56 94 145 161 171 170 165 166 169 169 174 177 173 169 171 173 177 180 182 184 185 186 187 187 188 189 188 189 189 188 186 186 186 186 185 183 182 181 181 182 183 185 186 186 185 183 182 180 178 178 177 175 172 171
131 170 182 197 214 225 235 235 154 140 158 202 209 198 205 211 203 201 211 221 230 230 207 230 243 259 267 253 242 248 212 191 200 164 161 170 172 165 157 160 166 171 178 176 169 169 172 176 181 182 184 186 187 189 190 189 189 190 189 190 190 190 189 187 187 187 186 186 185 185 185 187 188 190 190 190 188 186 185 184 184 184 182 181 180 180
99 197 201 206 217 227 237 237 174 148 174 201 204 204 208 209 205 205 218 225 210 182 251 238 220 250 254 219 208 231 212 203 210 195 192 181 164 158 148 153 165 170 172 169 168 173 178 182 183 182 184 186 187 190 191 192 192 192 192 191 191 191 191 189 189 188 188 188 188 189 190 191 193 193 193 192 190 190 189 189 189 188 186 186 187 187
137 214 212 210 222 234 241 243 224 196 203 203 198 207 210 206 207 211 220 225 201 205 248 241 191 234 250 224 204 214 199 202 207 196 185 164 155 158 155 162 172 171 170 173 177 182 184 186 183 181 185 186 186 189 190 192 194 194 194 193 192 192 192 191 191 190 190 190 191 194 195 195 196 196 195 194 193 193 193 193 193 191 191 191 192 194
168 218 212 198 222 243 247 248 244 238 244 240 223 217 212 208 212 214 219 223 215 223 244 247 232 242 251 226 202 204 197 199 186 158 161 166 168 164 161 171 177 175 178 179 184 189 188 187 184 182 183 184 188 191 191 193 194 194 194 194 193 193 193 193 192 192 192 193 195 197 198 198 198 197 196 196 197 198 197 197 196 194 195 196 197 199
209 220 204 149 207 252 251 250 250 247 251 257 255 245 232 224 219 215 218 222 221 231 243 247 253 256 250 226 211 199 179 163 146 154 166 172 173 164 163 173 175 176 184 186 189 191 186 183 181 181 186 191 193 193 192 193 194 194 195 195 195 194 194 194 194 194 195 196 197 199 200 200 199 198 198 199 200 202 201 200 200 198 199 201 202 205
190 216 58 105 194 250 250 243 242 245 247 256 259 252 242 236 224 211 218 218 213 228 240 242 249 254 244 215 207 183 158 158 169 173 168 169 173 168 167 171 172 178 187 191 191 186 181 183 184 188 193 195 195 194 194 194 193 195 197 197 196 195 194 195 196 196 197 198 200 201 200 201 200 200 201 201 203 204 204 204 203 203 203 205 207 210
173 183 178 162 205 250 252 233 213 232 240 240 245 245 241 238 229 220 226 224 214 218 229 230 237 250 235 163 172 176 167 176 185 183 173 169 168 169 170 169 174 185 190 191 189 184 186 189 190 193 195 195 195 196 197 196 194 197 199 197 196 195 194 197 198 198 199 200 202 202 201 203 203 202 203 203 205 206 206 206 207 207 208 210 213 215
181 194 210 193 199 251 253 206 133 207 228 232 238 241 237 232 225 223 230 231 219 214 226 239 246 244 165 167 183 186 186 191 191 191 184 165 158 169 178 176 181 188 188 187 185 185 188 188 190 194 195 196 198 199 198 199 199 200 200 198 197 196 197 199 200 201 202 203 204 203 203 205 205 204 204 205 206 208 209 210 211 212 213 215 217 220
185 198 214 206 215 252 204 115 176 223 227 243 297 297 232 227 219 222 235 239 230 221 227 240 246 222 187 193 192 186 194 194 180 182 189 176 166 163 168 182 189 184 177 177 180 183 182 178 179 185 190 196 199 198 198 200 201 201 200 198 198 198 199 201 202 204 205 205 204 204 205 206 206 205 205 207 208 210 212 214 215 216 217 219 221 225
187 198 209 199 210 234 124 179 223 246 280 287 290 284 217 177 172 205 240 245 234 222 220 231 236 221 190 192 177 161 174 157 116 152 192 185 176 160 168 189 189 177 176 177 176 177 177 177 179 184 191 197 198 198 198 200 200 199 199 199 199 200 201 202 204 206 207 206 206 206 206 206 206 206 208 209 210 212 214 217 218 219 220 222 225 228
190 193 204 208 205 204 214 223 238 305 303 274 257 200 172 164 166 183 228 248 235 216 212 226 230 206 170 171 145 115 110 99 53 282 248 204 188 169 174 185 173 166 169 168 171 174 175 180 186 190 194 195 196 197 198 199 199 198 197 198 199 200 201 202 206 208 208 207 208 208 207 208 208 209 210 211 212 215 217 219 220 221 223 225 227 229
201 198 198 208 208 201 223 237 240 266 263 258 247 184 178 201 185 173 210 251 243 204 204 215 214 183 162 159 145 122 107 118 221 249 242 213 180 137 129 137 144 149 148 148 154 159 165 176 183 187 191 190 191 196 197 196 196 194 193 195 197 199 201 204 208 209 208 210 211 210 210 211 212 212 212 212 215 218 220 221 223 225 227 228 230 233
224 221 198 206 213 200 214 230 226 231 244 245 223 212 231 262 148 132 191 255 265 196 201 198 189 172 161 156 150 135 131 180 220 243 222 189 172 137 125 119 119 129 136 143 150 153 159 169 172 176 181 181 183 189 192 192 192 189 190 193 195 198 201 206 209 210 212 215 215 214 214 215 215 215 215 216 219 221 222 224 226 228 229 231 233 236
209 218 188 209 222 212 216 230 232 240 255 197 188 233 292 301 129 124 189 255 304 356 257 172 162 161 153 149 150 151 170 199 216 236 194 164 154 139 138 136 128 127 131 140 152 156 159 163 164 167 174 178 179 182 185 187 187 187 190 192 193 198 205 210 214 216 218 219 218 218 218 218 218 219 219 221 223 224 225 227 228 229 230 232 234 235
203 206 193 212 222 217 220 232 241 251 247 182 194 229 255 178 136 162 210 248 17 355 354 113 141 151 149 152 162 175 196 193 157 144 131 128 131 132 131 129 129 133 136 143 152 156 158 164 170 173 177 181 181 182 184 185 185 188 191 192 195 205 213 218 219 220 220 220 220 220 221 221 221 222 223 225 226 226 227 228 229 230 231 232 232 233
192 198 199 215 223 225 226 232 246 265 235 146 171 250 229 155 174 192 205 182 129 164 39 95 139 154 157 165 169 162 152 119 108 115 116 124 135 135 127 123 122 126 136 144 152 159 160 161 166 169 172 179 182 183 185 186 187 190 191 194 203 215 221 222 222 222 222 222 222 222 222 222 224 225 226 227 226 226 228 230 231 232 232 231 231 232
180 180 193 206 206 211 223 224 235 253 205 135 128 131 176 184 188 167 130 52 119 137 90 100 144 164 168 171 156 130 130 123 112 115 117 123 129 128 134 139 134 135 142 146 153 162 161 157 159 163 167 175 182 184 185 186 188 189 192 201 215 223 224 224 225 225 225 224 224 224 224 224 225 226 226 227 227 228 229 229 230 230 230 230 230 230
189 182 201 206 196 187 205 217 230 257 252 102 117 154 183 181 177 160 135 75 23 83 120 121 167 180 171 160 141 129 130 126 124 128 124 121 127 132 136 140 140 144 151 155 159 164 162 157 157 161 167 176 184 186 189 192 193 193 199 213 225 226 224 226 228 227 227 226 226 226 226 226 226 228 229 229 228 228 228 228 228 228 228 229 228 227
184 159 173 184 175 160 174 203 287 335 11 28 37 312 122 97 63 76 115 115 160 224 180 169 198 182 142 130 130 129 129 132 134 134 130 134 145 148 146 151 155 155 155 159 162 165 165 163 161 162 169 180 188 193 198 203 203 203 213 226 229 224 225 227 226 226 227 227 227 227 227 228 228 229 230 230 228 227 227 226 226 225 226 226 225 225
126 144 121 84 125 123 79 58 17 28 29 15 352 339 11 65 24 27 100 139 190 200 179 168 170 159 144 139 138 135 135 138 135 131 133 140 148 151 146 148 152 152 154 159 164 167 168 166 165 169 174 185 197 204 209 213 213 217 227 233 230 226 227 227 225 227 228 228 228 229 229 229 229 229 228 228 228 228 228 228 227 225 224 223 223 224
212 174 112 101 174 178 102 54 39 75 68 348 331 332 331 318 317 323 164 165 156 157 164 128 115 136 146 143 142 145 146 141 138 140 141 139 144 152 149 143 147 155 160 164 168 171 170 168 170 176 184 195 206 214 219 221 224 229 233 235 233 232 233 231 229 230 231 230 229 229 229 229 229 229 228 227 228 228 229 230 229 226 224 223 222 222
189 152 138 139 151 121 109 150 54 50 350 296 283 247 232 236 263 283 321 54 74 97 97 71 93 128 145 146 145 144 147 153 153 149 148 147 148 151 150 149 154 161 165 169 172 174 175 178 182 186 194 205 214 220 224 227 231 233 232 232 236 239 241 241 239 236 234 232 229 228 229 230 230 230 230 230 230 230 229 229 229 227 228 229 228 226
109 133 155 134 117 92 80 162 117 72 352 296 272 250 234 222 230 246 9 60 70 84 79 58 58 98 138 158 153 139 146 168 166 151 148 152 151 153 157 160 163 166 169 174 178 180 183 188 193 197 205 213 217 221 227 232 237 240 240 241 244 245 246 248 247 243 240 237 235 234 233 233 233 234 235 234 234 233 232 231 232 232 233 234 234 233
115 155 156 113 132 185 187 177 169 146 184 233 230 227 227 223 214 210 193 147 135 133 123 96 54 48 74 128 143 144 157 175 167 153 155 162 166 168 167 166 168 172 176 180 185 190 195 199 203 209 214 217 218 221 228 237 244 252 258 260 258 255 252 250 249 247 245 244 244 244 244 243 242 241 241 240 240 239 237 235 235 236 238 238 238 238
164 181 169 144 170 205 174 173 179 164 167 205 209 208 214 212 193 195 208 200 180 164 150 138 120 100 73 22 132 151 160 169 165 155 153 165 176 174 173 176 179 180 185 190 194 201 208 211 214 219 223 225 227 232 239 247 257 265 272 274 273 268 258 251 248 249 249 250 251 252 252 252 251 249 247 246 246 246 244 242 240 239 240 241 241 241
Height
816 826 830 830 826 821 817 816 816 814 813 816 820 824 824 826 825 815 815 817 812 819 821 814 815 813 808 805 805 810 812 812 812 810 809 811 814 818 820 823 824 828 832 834 836 838 839 840 840 842 842 844 845 846 847 848 849 849 849 851 851 853 854 855 855 856 856 857 858 859 860 860 862 863 863 864 865 865 866 867 867 868 868 868 868 869
818 829 828 820 816 812 810 809 810 812 813 815 820 826 825 826 825 814 814 817 812 820 821 813 815 813 807 804 800 803 809 810 808 807 806 806 811 814 816 820 823 827 832 833 835 837 838 839 840 841 842 843 845 846 847 847 848 849 849 850 851 853 854 854 855 856 856 857 858 859 860 861 862 863 864 865 866 866 867 867 868 868 869 869 869 870
827 829 821 812 809 808 807 806 808 811 814 818 821 827 831 827 823 816 815 817 815 822 823 817 819 815 805 802 799 799 802 802 800 799 800 801 806 811 813 816 821 827 831 832 834 835 836 837 839 840 841 842 844 845 847 847 848 849 849 850 851 852 853 854 855 855 856 857 858 859 860 861 862 864 865 866 867 867 867 868 869 870 870 870 870 871
832 823 811 807 807 807 809 809 812 815 817 821 823 830 832 826 826 827 823 821 818 821 823 820 822 817 807 803 798 794 792 793 795 796 797 799 801 806 809 813 818 824 827 829 831 833 834 836 837 839 840 841 843 845 846 847 848 848 848 849 850 851 852 853 854 855 856 857 858 860 861 862 863 865 866 867 868 868 868 869 870 871 872 872 872 872
821 810 801 803 805 807 812 814 816 822 825 823 823 828 829 823 823 824 822 821 820 821 821 824 829 818 806 805 797 790 790 791 795 797 798 800 800 803 807 810 815 819 823 826 828 830 832 833 835 837 838 839 842 844 845 846 847 847 848 848 849 850 851 853 854 855 856 857 858 860 861 863 864 866 867 867 868 869 869 870 872 873 873 874 874 875
812 802 798 803 806 808 814 817 816 822 828 826 820 820 821 820 819 818 818 821 829 832 824 827 839 822 798 798 795 791 793 794 796 797 798 801 802 803 807 809 813 816 819 823 825 827 829 831 833 835 837 838 840 842 844 845 846 847 847 848 849 850 851 853 854 855 856 857 858 860 861 863 864 866 867 868 869 870 871 872 873 874 875 875 875 876
806 802 800 805 809 811 817 818 814 817 828 831 822 815 814 816 819 821 822 827 836 838 826 825 841 831 806 798 794 793 797 795 797 798 796 799 802 803 806 808 811 814 817 820 823 825 827 828 831 833 835 837 838 841 843 844 845 846 847 847 848 849 851 853 854 855 856 857 859 860 861 862 863 864 867 869 870 870 872 873 874 875 876 877 877 878
804 807 807 807 811 816 820 820 813 814 826 831 822 816 815 816 822 823 825 832 832 831 829 827 834 839 823 802 790 791 796 795 794 796 794 795 797 799 804 807 810 813 814 817 821 822 824 826 828 830 833 835 837 840 842 843 844 845 846 846 847 849 850 852 854 855 856 857 858 859 861 862 863 864 866 869 870 871 872 873 875 876 877 878 878 879
804 809 810 809 814 818 818 816 810 810 821 826 820 818 819 821 825 825 828 833 831 834 842 833 832 841 824 797 787 787 792 794 790 788 790 790 792 795 800 805 808 812 814 815 818 820 822 824 826 828 831 833 836 838 840 842 843 844 845 845 846 848 849 851 852 853 855 856 857 859 860 862 864 865 866 868 870 871 873 874 875 877 877 878 879 881
807 812 809 807 814 815 813 815 812 809 816 822 820 819 822 824 826 828 832 835 836 843 846 835 832 840 819 791 788 789 788 789 782 777 781 784 788 793 797 802 807 810 813 815 816 818 820 822 825 827 829 832 835 837 839 840 842 843 843 844 845 847 848 850 851 852 854 855 856 858 859 860 862 864 866 868 870 871 872 874 875 877 878 879 880 881
809 812 810 808 810 810 813 820 819 814 815 819 821 823 827 828 828 832 833 835 846 846 838 829 826 835 826 795 782 783 779 776 773 772 777 781 787 793 796 801 805 809 812 814 816 818 820 822 824 826 829 831 834 836 838 840 841 842 842 843 844 846 848 849 851 852 853 855 856 858 859 859 861 863 865 866 869 871 872 873 875 877 878 879 880 882
812 814 812 809 808 809 813 820 822 820 817 819 822 826 833 835 836 841 839 842 855 844 826 821 817 828 832 800 775 773 769 767 769 772 779 784 789 792 796 800 804 808 810 813 815 816 818 821 823 826 828 830 833 835 837 838 840 841 841 842 843 845 847 848 850 851 852 855 856 858 859 859 860 862 863 865 867 870 872 873 875 876 878 879 880 882
814 812 810 810 810 808 812 820 825 826 822 822 825 831 841 846 846 850 849 850 853 837 820 818 817 822 817 792 776 773 768 769 771 772 778 784 788 792 796 800 803 807 809 811 814 815 817 819 820 823 826 828 831 833 835 837 838 839 840 841 842 844 846 847 849 850 852 854 856 857 858 859 861 862 863 865 867 870 871 873 874 875 877 879 880 882
816 811 808 813 812 805 806 815 824 827 825 825 826 833 842 848 852 851 847 843 838 828 821 819 820 821 806 785 775 770 770 776 777 776 778 781 787 792 796 801 803 806 808 810 812 813 814 816 818 821 823 826 829 831 833 835 836 837 839 840 842 843 845 847 848 850 852 854 855 857 858 859 860 862 863 865 867 869 871 872 873 875 876 878 880 882
819 812 804 808 805 800 800 800 804 814 823 822 817 823 831 833 837 837 833 831 828 825 827 826 822 815 801 784 776 775 778 783 784 782 780 782 788 793 797 802 804 806 808 809 811 812 813 815 816 819 822 824 827 829 831 833 834 836 838 839 841 842 844 846 848 849 851 853 855 856 858 859 860 861 863 865 867 869 870 871 873 874 876 877 879 881
812 803 791 794 794 794 798 794 793 806 821 820 811 819 825 818 817 822 822 822 825 830 829 826 818 802 787 778 779 785 785 784 788 786 784 787 790 794 798 801 803 805 806 807 809 810 812 813 815 817 820 823 826 828 830 832 833 835 837 839 840 842 843 845 847 849 850 851 853 855 857 858 859 861 862 864 867 868 869 870 872 873 875 877 878 880
805 801 792 796 796 795 798 795 792 799 811 816 816 819 815 806 808 820 826 822 827 833 822 813 809 797 786 777 775 784 784 785 791 788 787 790 791 795 797 799 801 803 804 805 807 808 809 811 814 816 819 822 824 826 828 830 832 834 835 837 839 841 843 845 846 847 849 850 852 854 855 857 858 860 861 863 866 867 869 870 871 872 874 876 877 879
790 800 800 799 800 800 799 797 794 794 800 812 818 812 806 809 813 820 830 830 832 833 814 801 801 797 793 784 775 780 783 786 790 788 788 790 791 794 795 796 799 800 802 804 805 807 808 810 812 814 817 820 823 825 827 829 831 833 835 836 838 839 841 843 845 846 848 849 851 853 854 856 857 859 861 863 865 866 868 869 871 872 873 875 877 878
779 795 804 803 803 804 799 799 802 800 799 806 809 803 804 819 823 823 832 832 832 833 814 798 795 789 785 778 773 777 777 778 785 787 787 787 788 791 792 794 797 798 801 803 803 806 806 808 810 812 816 819 822 825 827 829 831 833 835 836 838 839 840 842 844 845 847 848 850 852 853 855 857 859 861 863 865 866 867 869 870 872 873 875 877 878
777 789 803 807 806 805 802 803 808 808 805 806 808 803 802 811 817 819 821 819 821 826 813 799 791 777 765 758 760 767 766 766 776 781 781 782 783 786 787 790 793 795 798 799 800 803 804 806 809 810 814 817 820 824 826 828 830 832 834 835 837 839 840 842 843 845 847 848 849 851 852 855 857 859 861 863 864 866 867 868 870 871 873 875 877 878
780 786 797 810 811 806 805 802 799 799 802 808 812 810 807 809 813 815 812 806 810 817 811 803 791 766 748 743 746 753 754 756 764 769 771 775 778 780 782 785 788 791 794 796 797 799 801 804 807 810 813 816 819 823 825 827 829 831 833 834 835 837 839 841 843 844 846 847 848 850 851 854 856 858 861 862 864 865 866 868 869 871 873 874 876 877
782 784 792 808 812 806 800 791 788 790 791 797 804 805 804 806 811 816 813 803 801 805 800 799 788 759 741 739 737 740 743 745 753 760 764 768 772 774 777 780 784 787 790 792 793 796 799 802 805 808 812 815 818 821 823 825 827 829 831 832 834 836 837 839 841 843 845 846 848 849 851 853 855 858 860 861 863 864 865 867 869 870 872 873 875 876
773 781 788 797 799 797 793 787 788 789 787 791 796 795 797 800 801 808 808 799 798 797 790 795 790 761 744 746 742 740 740 740 746 754 759 764 767 770 774 777 780 783 786 789 791 793 796 799 803 807 810 813 816 818 821 823 825 827 829 831 833 834 836 838 840 842 844 845 847 849 850 852 854 857 859 860 862 863 865 866 868 869 871 872 873 875
774 782 788 792 790 789 791 789 789 789 789 793 792 789 792 792 790 794 794 793 797 793 789 800 795 763 749 754 754 752 748 743 743 747 753 761 764 767 771 773 777 780 784 788 790 792 796 799 803 806 809 812 814 816 819 821 823 825 827 829 831 832 835 837 839 841 843 844 846 848 849 851 853 855 857 859 860 862 863 865 867 868 870 871 872 873
777 784 790 797 798 797 798 798 797 795 794 791 787 787 787 784 788 791 790 796 797 785 785 797 785 757 751 757 757 757 754 749 749 749 751 758 762 765 767 770 774 779 783 787 789 792 795 798 801 804 807 810 812 815 817 820 822 823 825 827 829 831 833 835 838 840 841 843 845 846 848 849 852 854 855 857 859 860 862 864 865 867 868 869 871 872
769 778 782 791 796 793 788 785 785 789 793 789 784 785 784 783 787 788 791 800 794 778 780 785 768 751 753 756 755 756 756 753 755 755 753 756 760 762 765 769 773 777 781 783 786 789 792 795 799 802 805 808 811 813 816 818 820 822 824 826 827 829 831 834 836 838 840 842 843 844 846 848 850 852 854 855 857 859 861 862 864 865 867 868 870 871
768 773 773 774 774 770 764 760 762 771 781 783 780 780 782 782 782 785 790 789 779 777 777 767 756 753 752 752 753 754 756 756 757 758 757 757 760 761 763 768 772 775 778 780 783 786 790 793 796 799 803 806 809 812 814 816 818 820 822 824 826 828 830 832 834 836 838 839 840 842 844 846 848 850 852 854 856 858 859 860 862 863 865 867 868 870
767 772 767 765 761 754 749 750 755 762 768 771 774 776 778 779 780 784 782 768 767 781 772 750 753 757 746 745 749 749 753 757 756 758 758 758 762 763 764 768 771 774 776 778 781 784 787 790 793 797 800 803 806 809 812 814 817 819 821 822 824 826 828 830 832 834 836 837 838 840 842 844 847 849 851 853 854 856 857 859 860 862 863 865 866 868
761 762 759 761 761 752 745 746 751 756 758 761 767 770 771 775 776 774 767 759 765 774 757 741 751 750 735 738 744 742 747 750 749 752 755 757 761 762 764 767 769 772 773 775 778 781 783 787 790 793 796 800 803 806 809 812 814 816 819 820 822 823 825 828 830 832 834 835 836 838 840 843 846 848 850 852 853 854 855 857 858 860 862 863 864 866
756 753 752 758 761 755 749 749 750 754 757 757 759 761 762 765 763 759 759 760 763 761 745 740 750 741 728 733 735 734 740 742 743 749 753 757 759 760 763 767 768 769 770 772 775 778 780 783 786 790 794 797 800 802 805 808 810 812 815 816 819 821 823 825 827 829 831 832 834 836 839 841 844 846 848 849 851 852 853 854 856 858 860 861 862 864
757 753 751 757 764 760 751 752 755 758 760 758 757 756 753 751 752 757 759 759 762 758 745 747 754 740 725 727 728 729 735 739 743 747 750 756 758 760 763 765 765 767 768 771 773 775 779 782 785 789 791 793 795 797 800 803 806 809 812 813 815 818 820 823 825 827 828 830 832 835 837 840 842 844 845 846 848 849 851 852 854 856 858 859 860 861
760 759 757 762 770 761 748 753 760 759 762 766 761 750 742 741 747 753 753 750 753 752 749 756 755 733 720 725 728 729 734 738 742 744 747 753 756 757 759 760 762 765 767 769 771 773 776 779 781 784 785 788 791 793 796 800 803 806 808 810 812 815 818 821 822 824 826 828 831 833 835 837 839 841 842 844 845 847 848 850 852 854 855 856 857 859
759 760 761 767 770 757 744 749 757 761 768 766 747 729 726 734 742 744 742 739 739 742 745 748 738 722 721 728 729 731 735 736 738 740 742 747 752 754 753 754 759 762 764 766 768 770 773 775 777 779 780 784 787 789 792 796 799 802 804 807 811 813 816 819 820 823 824 826 828 830 832 835 836 838 839 840 842 844 846 848 849 851 852 854 855 856
759 757 758 762 763 754 746 751 760 764 759 740 720 714 718 726 732 735 732 728 729 732 732 728 724 722 724 725 725 729 731 730 731 734 736 740 746 749 751 753 756 759 761 764 766 768 771 772 774 777 778 782 784 787 791 794 796 799 802 806 809 811 814 816 818 820 822 823 825 827 829 832 833 834 836 838 840 842 843 845 847 848 850 851 852 853
756 759 758 758 759 755 755 762 761 749 733 718 715 720 720 717 721 726 725 721 722 725 725 722 723 723 722 721 723 725 726 728 731 733 736 739 739 741 746 750 753 756 759 762 765 767 769 770 773 775 777 780 783 786 789 792 795 798 801 804 806 809 811 813 816 817 818 820 822 824 826 828 829 832 833 835 837 839 841 842 844 845 847 848 850 851
747 754 755 755 758 758 760 759 743 725 718 716 720 726 725 720 721 726 726 719 715 718 720 719 717 719 722 725 725 727 730 733 735 736 739 739 737 737 741 745 749 753 755 758 761 763 766 768 770 773 776 779 782 784 787 789 793 796 798 801 804 806 809 811 813 814 816 818 820 821 823 824 826 829 830 833 835 836 838 839 840 842 844 846 847 848
738 745 749 751 750 748 748 742 730 724 721 711 710 718 721 715 715 720 721 712 704 708 713 712 714 719 725 728 729 732 735 735 735 737 738 738 737 738 741 744 747 751 753 756 759 761 763 766 769 772 775 777 780 782 784 787 791 793 796 799 801 804 806 808 809 811 813 815 816 818 820 822 823 826 827 829 831 832 834 835 837 839 841 843 844 845
736 737 740 743 741 740 740 736 734 735 722 705 704 712 713 711 709 712 715 708 699 703 707 708 713 719 723 730 734 734 734 733 732 732 735 738 740 741 744 747 749 751 753 756 758 761 763 767 769 772 775 776 779 781 783 786 789 791 794 797 799 801 803 805 806 808 810 812 813 815 817 819 820 822 824 826 827 829 830 832 834 836 837 839 840 841
741 738 738 741 739 739 739 734 728 723 710 704 711 716 715 714 709 711 721 714 701 703 706 704 711 719 722 729 733 731 731 732 731 730 733 738 741 743 746 749 750 752 754 755 757 761 764 767 770 772 774 776 778 780 782 785 787 790 792 794 797 799 800 801 803 805 806 808 809 812 814 816 818 819 821 823 824 825 827 829 831 833 834 836 837 838
746 745 744 743 737 735 734 728 720 712 707 712 718 718 718 716 709 715 726 717 706 712 712 705 712 722 725 730 733 730 728 728 728 730 733 737 742 746 747 749 750 752 754 756 759 761 764 767 769 771 773 775 777 779 782 784 786 789 791 793 795 796 797 798 799 801 803 805 807 810 811 813 815 816 818 819 820 822 824 826 828 829 831 832 834 835
743 742 741 737 731 730 729 724 716 709 709 717 720 718 717 716 713 715 716 712 716 723 717 711 716 724 727 730 730 728 727 728 730 732 735 739 743 746 748 749 751 752 754 757 759 762 765 767 769 770 772 774 777 779 781 783 785 787 789 792 793 793 793 795 797 799 801 803 805 807 809 810 812 813 815 816 818 820 822 823 825 826 827 829 831 832
733 736 737 733 728 725 723 721 717 710 711 719 722 720 718 715 712 713 715 721 727 724 718 718 721 724 727 728 727 728 731 734 735 736 738 741 743 746 749 750 752 754 757 758 760 762 764 767 769 771 773 775 777 778 780 782 784 786 788 790 790 790 791 793 796 798 799 801 803 804 806 808 809 811 813 814 816 818 819 820 821 823 824 826 827 828
718 723 727 723 719 722 724 722 716 709 711 718 718 717 716 713 711 714 719 725 727 722 719 721 723 725 728 727 728 732 734 736 738 739 741 743 744 747 749 750 752 755 756 758 761 762 764 766 769 771 772 775 776 778 780 782 783 785 787 788 787 788 791 793 794 796 798 799 801 802 803 805 807 808 810 811 813 814 815 817 818 819 821 823 823 825
707 711 715 708 704 712 716 715 713 714 719 722 717 714 714 715 717 718 717 718 722 724 722 720 722 727 728 727 730 734 734 737 740 741 742 745 747 748 750 751 753 755 756 758 760 762 764 766 768 771 773 774 776 778 779 781 782 784 785 785 786 788 790 792 793 794 796 797 798 800 801 803 804 806 807 808 810 811 812 813 815 816 817 819 820 821
705 710 711 705 705 712 714 715 721 727 728 727 724 721 719 719 722 721 717 717 721 723 723 722 724 727 729 729 732 733 735 738 740 742 744 746 747 749 751 752 753 754 756 758 759 761 764 765 767 770 772 774 775 777 779 780 782 783 783 784 786 788 789 790 792 793 794 795 796 798 799 800 802 803 804 805 806 807 808 809 811 812 813 814 815 816
713 716 712 710 714 720 724 728 730 731 730 728 727 727 724 722 723 722 720 720 721 723 725 725 724 727 730 731 731 733 736 739 740 743 745 746 749 751 751 752 754 755 756 757 759 761 763 765 767 769 771 773 775 776 778 779 781 782 783 784 786 787 788 789 790 791 792 793 794 795 796 797 799 799 800 802 803 803 804 805 806 807 808 810 811 812
716 717 714 713 714 715 722 731 733 733 733 732 730 728 726 725 725 724 723 723 723 724 726 727 727 729 731 731 732 735 737 739 741 744 745 747 749 750 751 752 753 754 755 757 758 760 763 764 767 769 770 772 774 775 777 778 779 781 782 783 785 786 787 788 788 789 790 791 792 793 794 794 795 796 797 798 799 800 801 802 803 804 805 805 806 807
709 712 714 715 716 718 725 734 736 735 735 734 732 730 728 726 726 726 725 725 725 726 727 728 729 730 731 732 734 735 737 740 741 742 745 746 748 749 750 751 752 754 756 757 758 760 762 764 766 768 769 771 772 774 775 776 778 780 781 782 783 784 785 786 787 787 788 789 790 790 791 792 792 793 794 795 795 796 797 798 799 800 800 800 800 801
707 712 713 714 721 728 732 735 737 736 736 735 733 731 729 727 726 726 726 726 726 727 728 730 731 731 732 733 734 735 738 740 740 741 744 745 747 748 750 750 752 754 755 757 758 760 761 763 765 766 768 770 771 773 774 775 777 778 779 780 781 782 783 785 785 786 787 788 788 789 789 789 790 790 791 792 792 793 794 795 796 796 796 797 798 799
710 713 712 714 721 724 724 727 729 727 726 729 729 727 727 727 726 726 727 727 727 728 730 731 733 734 734 734 735 736 737 738 740 742 743 744 746 747 748 750 752 754 755 757 759 760 761 763 764 765 767 769 771 772 773 774 775 776 777 778 779 780 782 783 784 785 786 786 787 787 787 787 788 788 789 790 790 792 793 794 795 795 795 796 798 799
707 707 707 710 714 714 713 718 721 718 717 720 723 722 723 724 725 725 725 725 727 729 730 731 733 734 736 736 736 736 737 738 740 741 743 745 746 746 748 750 751 753 755 756 758 759 761 762 763 765 766 768 769 771 772 772 773 774 775 776 777 779 780 781 782 782 782 783 784 784 785 786 786 787 788 788 789 790 791 792 793 793 794 795 796 797